User: anonymous   Login
Location: Unspecified
(0.0000°N, 0.0000°E)
Time: 11:18:55
(UTC+00:00)
Language:

Nova 3 - Orbit

View from above orbital plane
View from above orbital plane
View from above satellite
View from above satellite

Ground track
Ground track

The orbit data is extracted from the following two-line orbital elements,

1 15362U 84110A   23342.72327685  .00000046  00000-0  89667-4 0  9995
2 15362  90.1154  72.3594 0031881 192.5215 322.5304 13.22907859889803
Epoch (UTC): 08 December 2023 17:21:31
Eccentricity: 0.0031881
inclination: 90.1154°
perigee height: 1149 km
apogee height: 1198 km
right ascension of ascending node: 72.3594°
argument of perigee: 192.5215°
revolutions per day: 13.22907859
mean anomaly at epoch: 322.5304°
orbit number at epoch: 88980

The dashed part of the orbit path shows where the satellite is in the earth's shadow,  

DLR